Regional Weather Roundup
Issued by NWS Sterling, VA

Home | Current Version | Previous Version | Graphics & Text | Print | Product List | Glossary On
Versions: 1 2 3 4 5 6 7 8 9 10 11 12 13 14 15 16 17 18 19 20 21 22 23 24 25 26 27
000
ASUS41 KLWX 281410
RWRLWX

REGIONAL WEATHER ROUNDUP
NATIONAL WEATHER SERVICE BALTIMORE MD/WASHINGTON DC
1000 AM EDT SAT MAY 28 2016

Note: "FAIR" indicates few or no clouds below 12,000 feet
with no significant weather and/or obstructions to visibility.
 TC=TEMPERATURE CELSIUS

 * =Non NWS site. Station does not report precipitation (e.g. rain,
    snow, etc.), thunder, or fog.

DCZ001-MDZ009-015-VAZ040>042-051-053>054-281500-
WASHINGTON METRO

CITY           SKY/WX    TMP DP  RH WIND       PRES   REMARKS
WASHINGTON NAT FAIR      76  65  68 S12       30.17R
DULLES         FAIR      77  65  66 S5        30.16S
ANDREWS AFB    SUNNY     79  64  59 SW6       30.16S
FT BELVOIR     FAIR      77  65  65 VRB2      30.17R
QUANTICO       FAIR      75  65  70 S10       30.17S
COLLEGE PARK*  FAIR      77  63  61 CALM      30.16S
LEESBURG*      FAIR      81  72  74 SW5       30.17F
MANASSAS*      SUNNY     79  66  65 S5        30.16

$$

MDZ006>007-011-014-281500-
BALTIMORE METRO

CITY           SKY/WX    TMP DP  RH WIND       PRES   REMARKS
BWI AIRPORT    MOSUNNY   79  64  60 W6        30.16R
MD SCIENCE CTR   N/A     79  64  60 MISG      30.16R
MARTIN STATE   SUNNY     73  68  83 SE7       30.18R
ANNAPOLIS      SUNNY     71  66  84 E12       30.16R
FORT MEADE*    SUNNY     77  63  61 SW6       30.19R

$$

MDZ012-015-019>023-281500-
MARYLAND EASTERN SHORE

CITY           SKY/WX    TMP DP  RH WIND       PRES   REMARKS
OCEAN CITY     PTSUNNY   71  64  78 S8        30.20S
SALISBURY      SUNNY     78  63  59 S10       30.19S
BAY BRIDGE AP* SUNNY     77  63  61 S7        30.17S
CAMBRIDGE*     SUNNY     75  63  64 S6        30.18R
EASTON*        SUNNY     81  66  61 SW9       30.21R

$$

MDZ017>025-281500-
SOUTHERN MARYLAND

CITY           SKY/WX    TMP DP  RH WIND       PRES   REMARKS
PATUXENT RIVER MOSUNNY   78  61  55 S7        30.18R
ST INIGOES     SUNNY     76  63  64 S7        30.18R
LEONARDTOWN*   SUNNY     77  61  57 SW7       30.19S

$$

MDZ003>005-281500-
NORTH CENTRAL MARYLAND

CITY           SKY/WX    TMP DP  RH WIND       PRES   REMARKS
FREDERICK*     SUNNY     79  72  78 S3        30.18S
HAGERSTOWN APT SUNNY     77  68  73 CALM      30.16S
WESTMINSTER*   SUNNY     79  66  65 W6        30.17S

$$

MDZ501>502-281500-
WESTERN MARYLAND

CITY           SKY/WX    TMP DP  RH WIND       PRES   REMARKS
OAKLAND*       NOT AVBL
CUMBERLAND*    CLOUDY    72  70  94 CALM      30.20F

$$

VAZ025>031-281500-
SHENANDOAH VALLEY

CITY           SKY/WX    TMP DP  RH WIND       PRES   REMARKS
WINCHESTER*    FAIR      79  68  69 SW5       30.17S
FRONT ROYAL*   PTSUNNY   77  70  78 CALM      30.16S
LURAY*         FAIR      79  68  69 SW3       30.17F
NEW MARKET*    FAIR      78  69  73 S3        30.16S
STAUNTON*      FAIR      75  68  77 S5        30.21S
WAYNESBORO*    FAIR      77  65  66 CALM      30.21R

$$

WVZ021-048>050-054>055-281500-
EASTERN WEST VIRGINIA PANHANDLE

CITY           SKY/WX    TMP DP  RH WIND       PRES   REMARKS
MARTINSBURG    FAIR      79  67  66 S3        30.15S
PETERSBURG*    FAIR      73  68  84 CALM      30.18S

$$

VAZ036>039-050-281500-
CENTRAL FOOTHILLS

CITY           SKY/WX    TMP DP  RH WIND       PRES   REMARKS
CHARLOTTESVILL FAIR      78  67  68 S3        30.17R
CULPEPER*      FAIR      79  68  67 S3        30.17S
ORANGE*        FAIR      79  68  69 NE3       30.18S
GORDONSVILLE*  FAIR      77  67  71 SW3       30.16S
WARRENTON*     FAIR      80  62  54 SW3       30.16S

$$

VAZ055>057-281500-
NORTH AND CENTRAL PIEDMONT

CITY           SKY/WX    TMP DP  RH WIND       PRES   REMARKS
FREDERICKSBRG* FAIR      78  65  64 S5        30.16F
STAFFORD*      FAIR      77  64  63 SW3       30.20F

$$

NCZ024-NYZ072-PAZ021-071-VAZ022-071-281500-
OTHER REGIONAL OBSERVATIONS

CITY           SKY/WX    TMP DP  RH WIND       PRES   REMARKS
NEW YORK CITY  SUNNY     78  63  59 MISG      30.15S
PHILADELPHIA   MOSUNNY   78  63  59 SW8       30.16S
PITTSBURGH     MOSUNNY   79  63  57 SW8       30.15R
ROANOKE        FAIR      76  64  66 SE3       30.22R
RICHMOND       FAIR      75  62  64 SW7       30.19S
RALEIGH        MOSUNNY   75  61  61 VRB3      30.20R

$$

ANZ530>537-281500-
MARINE OBSERVATIONS

STATION/POSITION TIME  TEMP    WIND        PRES
                       AIR SEA DIR/SP/G
                 (UTC) (F)     (DEG/KT/KT) (MB)
THOMAS PT LIGHT  1400   69 66  170/ 11/ 12 1022.9R
BALT KEY BRIDGE  1300   74     190/  2/  3 1021.0R
COVE POINT       1300   67     180/ 10/ 11 1022.3R
LEWISETTA        1300   75 63  240/  8/  9 1021.5R
SOLOMONS ISLAND  1300   72 65  210/  5/  6   N/A
PINEY POINT      1300           CALM  /  1   N/A

$$





USA.gov is the U.S. government's official web portal to all federal, state and local government web resources and services.